Year,Month,Day,Hour,Minute,Value (Times are PST for windgust in km/hr)
2019,09,26,00,03,1.60
2019,09,26,00,04,3.20
2019,09,26,00,05,4.80
2019,09,26,00,06,6.40
2019,09,26,00,07,1.60
2019,09,26,00,08,3.20
2019,09,26,00,09,4.80
2019,09,26,00,11,3.20
2019,09,26,00,13,1.60
2019,09,26,00,14,3.20
2019,09,26,00,15,3.20
2019,09,26,00,16,1.60
2019,09,26,00,17,6.40
2019,09,26,00,18,3.20
2019,09,26,00,19,1.60
2019,09,26,00,20,6.40
2019,09,26,00,21,1.60
2019,09,26,00,22,1.60
2019,09,26,00,25,1.60
2019,09,26,00,26,1.60
2019,09,26,00,30,6.40
2019,09,26,00,31,6.40
2019,09,26,00,32,6.40
2019,09,26,00,33,3.20
2019,09,26,00,36,6.40
2019,09,26,00,37,3.20
2019,09,26,00,41,6.40
2019,09,26,00,42,4.80
2019,09,26,00,44,3.20
2019,09,26,00,45,3.20
2019,09,26,00,46,4.80
2019,09,26,00,47,1.60
2019,09,26,00,48,1.60
2019,09,26,00,51,1.60
2019,09,26,00,54,4.80
2019,09,26,00,55,6.40
2019,09,26,00,56,6.40
2019,09,26,00,57,6.40
2019,09,26,00,58,8.10
2019,09,26,00,59,1.60
2019,09,26,01,00,17.70
2019,09,26,01,01,22.50
2019,09,26,01,02,8.10
2019,09,26,01,03,14.50
2019,09,26,01,04,16.10
2019,09,26,01,05,8.10
2019,09,26,01,06,8.10
2019,09,26,01,07,11.30
2019,09,26,01,08,11.30
2019,09,26,01,09,14.50
2019,09,26,01,10,17.70
2019,09,26,01,11,17.70
2019,09,26,01,12,17.70
2019,09,26,01,13,17.70
2019,09,26,01,14,19.30
2019,09,26,01,15,6.40
2019,09,26,01,16,4.80
2019,09,26,01,17,16.10
2019,09,26,01,18,11.30
2019,09,26,01,19,8.10
2019,09,26,01,20,6.40
2019,09,26,01,21,4.80
2019,09,26,01,22,6.40
2019,09,26,01,23,6.40
2019,09,26,01,24,11.30
2019,09,26,01,25,9.60
2019,09,26,01,26,8.10
2019,09,26,01,27,16.10
2019,09,26,01,28,16.10
2019,09,26,01,29,8.10
2019,09,26,01,30,9.60
2019,09,26,01,31,6.40
2019,09,26,01,32,3.20
2019,09,26,01,33,4.80
2019,09,26,01,34,6.40
2019,09,26,01,36,16.10
2019,09,26,01,37,17.70
2019,09,26,01,38,14.50
2019,09,26,01,39,16.10
2019,09,26,01,40,14.50
2019,09,26,01,41,19.30
2019,09,26,01,42,17.70
2019,09,26,01,43,9.60
2019,09,26,01,44,8.10
2019,09,26,01,45,8.10
2019,09,26,01,46,9.60
2019,09,26,01,47,11.30
2019,09,26,01,48,19.30
2019,09,26,01,49,6.40
2019,09,26,01,51,14.50
2019,09,26,01,52,4.80
2019,09,26,01,53,14.50
2019,09,26,01,54,8.10
2019,09,26,01,55,9.60
2019,09,26,01,56,6.40
2019,09,26,01,57,6.40
2019,09,26,01,58,14.50
2019,09,26,01,59,3.20
2019,09,26,02,01,6.40
2019,09,26,02,02,8.10
2019,09,26,02,03,17.70
2019,09,26,02,04,22.50
2019,09,26,02,05,9.60
2019,09,26,02,06,9.60
2019,09,26,02,07,12.90
2019,09,26,02,08,9.60
2019,09,26,02,09,8.10
2019,09,26,02,10,19.30
2019,09,26,02,11,16.10
2019,09,26,02,12,9.60
2019,09,26,02,13,4.80
2019,09,26,02,14,1.60
2019,09,26,02,15,12.90
2019,09,26,02,16,17.70
2019,09,26,02,17,20.90
2019,09,26,02,18,8.10
2019,09,26,02,19,19.30
2019,09,26,02,20,16.10
2019,09,26,02,21,9.60
2019,09,26,02,22,22.50
2019,09,26,02,23,14.50
2019,09,26,02,24,16.10
2019,09,26,02,25,17.70
2019,09,26,02,26,12.90
2019,09,26,02,27,14.50
2019,09,26,02,28,16.10
2019,09,26,02,29,29.00
2019,09,26,02,30,24.20
2019,09,26,02,31,16.10
2019,09,26,02,32,9.60
2019,09,26,02,33,6.40
2019,09,26,02,34,11.30
2019,09,26,02,35,16.10
2019,09,26,02,36,22.50
2019,09,26,02,37,22.50
2019,09,26,02,38,17.70
2019,09,26,02,39,19.30
2019,09,26,02,40,16.10
2019,09,26,02,41,16.10
2019,09,26,02,42,19.30
2019,09,26,02,43,17.70
2019,09,26,02,44,24.20
2019,09,26,02,45,20.90
2019,09,26,02,46,17.70
2019,09,26,02,47,9.60
2019,09,26,02,48,9.60
2019,09,26,02,49,8.10
2019,09,26,02,50,6.40
2019,09,26,02,51,9.60
2019,09,26,02,52,16.10
2019,09,26,02,53,16.10
2019,09,26,02,54,32.20
2019,09,26,02,55,19.30
2019,09,26,02,56,25.70
2019,09,26,02,57,24.20
2019,09,26,02,58,20.90
2019,09,26,02,59,24.20
2019,09,26,03,00,24.20
2019,09,26,03,01,32.20
2019,09,26,03,02,46.70
2019,09,26,03,03,40.20
2019,09,26,03,04,37.00
2019,09,26,03,05,11.30
2019,09,26,03,06,29.00
2019,09,26,03,07,29.00
2019,09,26,03,08,22.50
2019,09,26,03,09,8.10
2019,09,26,03,10,6.40
2019,09,26,03,11,9.60
2019,09,26,03,12,19.30
2019,09,26,03,13,25.70
2019,09,26,03,14,30.60
2019,09,26,03,15,25.70
2019,09,26,03,16,25.70
2019,09,26,03,17,22.50
2019,09,26,03,18,27.40
2019,09,26,03,19,19.30
2019,09,26,03,20,11.30
2019,09,26,03,21,17.70
2019,09,26,03,22,24.20
2019,09,26,03,23,22.50
2019,09,26,03,24,16.10
2019,09,26,03,25,17.70
2019,09,26,03,26,24.20
2019,09,26,03,27,11.30
2019,09,26,03,28,20.90
2019,09,26,03,29,8.10
2019,09,26,03,30,11.30
2019,09,26,03,31,32.20
2019,09,26,03,32,16.10
2019,09,26,03,33,8.10
2019,09,26,03,34,20.90
2019,09,26,03,35,16.10
2019,09,26,03,36,22.50
2019,09,26,03,37,30.60
2019,09,26,03,38,24.20
2019,09,26,03,39,30.60
2019,09,26,03,40,25.70
2019,09,26,03,41,8.10
2019,09,26,03,42,24.20
2019,09,26,03,43,29.00
2019,09,26,03,44,16.10
2019,09,26,03,45,16.10
2019,09,26,03,46,29.00
2019,09,26,03,47,25.70
2019,09,26,03,48,24.20
2019,09,26,03,49,16.10
2019,09,26,03,50,19.30
2019,09,26,03,51,25.70
2019,09,26,03,52,19.30
2019,09,26,03,53,24.20
2019,09,26,03,54,27.40
2019,09,26,03,55,24.20
2019,09,26,03,56,29.00
2019,09,26,03,57,22.50
2019,09,26,03,58,19.30
2019,09,26,03,59,20.90
2019,09,26,04,00,24.20
2019,09,26,04,01,20.90
2019,09,26,04,02,17.70
2019,09,26,04,03,9.60
2019,09,26,04,04,9.60
2019,09,26,04,05,9.60
2019,09,26,04,06,12.90
2019,09,26,04,07,24.20
2019,09,26,04,08,27.40
2019,09,26,04,09,16.10
2019,09,26,04,10,9.60
2019,09,26,04,11,8.10
2019,09,26,04,12,19.30
2019,09,26,04,13,16.10
2019,09,26,04,14,14.50
2019,09,26,04,15,19.30
2019,09,26,04,16,14.50
2019,09,26,04,17,11.30
2019,09,26,04,18,8.10
2019,09,26,04,19,16.10
2019,09,26,04,20,40.20
2019,09,26,04,21,19.30
2019,09,26,04,22,17.70
2019,09,26,04,23,17.70
2019,09,26,04,24,20.90
2019,09,26,04,25,17.70
2019,09,26,04,26,16.10
2019,09,26,04,27,14.50
2019,09,26,04,28,16.10
2019,09,26,04,29,24.20
2019,09,26,04,30,27.40
2019,09,26,04,31,20.90
2019,09,26,04,32,14.50
2019,09,26,04,33,25.70
2019,09,26,04,34,24.20
2019,09,26,04,35,30.60
2019,09,26,04,36,35.40
2019,09,26,04,37,22.50
2019,09,26,04,38,19.30
2019,09,26,04,39,22.50
2019,09,26,04,40,14.50
2019,09,26,04,41,20.90
2019,09,26,04,42,27.40
2019,09,26,04,43,25.70
2019,09,26,04,44,27.40
2019,09,26,04,45,14.50
2019,09,26,04,46,8.10
2019,09,26,04,47,8.10
2019,09,26,04,48,29.00
2019,09,26,04,49,22.50
2019,09,26,04,50,24.20
2019,09,26,04,51,16.10
2019,09,26,04,52,17.70
2019,09,26,04,53,33.80
2019,09,26,04,54,41.80
2019,09,26,04,55,22.50
2019,09,26,04,56,16.10
2019,09,26,04,57,14.50
2019,09,26,04,58,32.20
2019,09,26,04,59,20.90
2019,09,26,05,00,40.20
2019,09,26,05,01,17.70
2019,09,26,05,02,24.20
2019,09,26,05,03,37.00
2019,09,26,05,04,19.30
2019,09,26,05,05,11.30
2019,09,26,05,06,20.90
2019,09,26,05,07,25.70
2019,09,26,05,08,12.90
2019,09,26,05,09,11.30
2019,09,26,05,10,17.70
2019,09,26,05,11,24.20
2019,09,26,05,12,16.10
2019,09,26,05,13,27.40
2019,09,26,05,14,25.70
2019,09,26,05,15,24.20
2019,09,26,05,16,14.50
2019,09,26,05,17,11.30
2019,09,26,05,18,16.10
2019,09,26,05,19,25.70
2019,09,26,05,20,20.90
2019,09,26,05,21,19.30
2019,09,26,05,22,11.30
2019,09,26,05,23,25.70
2019,09,26,05,24,20.90
2019,09,26,05,25,14.50
2019,09,26,05,26,16.10
2019,09,26,05,27,14.50
2019,09,26,05,28,17.70
2019,09,26,05,30,16.10
2019,09,26,05,31,11.30
2019,09,26,05,32,3.20
2019,09,26,05,33,11.30
2019,09,26,05,34,16.10
2019,09,26,05,35,25.70
2019,09,26,05,36,22.50
2019,09,26,05,37,17.70
2019,09,26,05,38,17.70
2019,09,26,05,39,17.70
2019,09,26,05,40,30.60
2019,09,26,05,41,24.20
2019,09,26,05,42,22.50
2019,09,26,05,43,9.60
2019,09,26,05,44,6.40
2019,09,26,05,45,16.10
2019,09,26,05,46,12.90
2019,09,26,05,47,22.50
2019,09,26,05,48,6.40
2019,09,26,05,49,8.10
2019,09,26,05,50,8.10
2019,09,26,05,51,11.30
2019,09,26,05,52,8.10
2019,09,26,05,53,8.10
2019,09,26,05,54,17.70
2019,09,26,05,55,9.60
2019,09,26,05,56,11.30
2019,09,26,05,57,4.80
2019,09,26,05,59,14.50
2019,09,26,06,00,8.10
2019,09,26,06,01,8.10
2019,09,26,06,02,16.10
2019,09,26,06,03,19.30
2019,09,26,06,04,3.20
2019,09,26,06,05,16.10
2019,09,26,06,06,8.10
2019,09,26,06,07,3.20
2019,09,26,06,08,3.20
2019,09,26,06,09,3.20
2019,09,26,06,10,6.40
2019,09,26,06,11,6.40
2019,09,26,06,12,14.50
2019,09,26,06,13,16.10
2019,09,26,06,14,14.50
2019,09,26,06,15,1.60
2019,09,26,06,16,9.60
2019,09,26,06,17,6.40
2019,09,26,06,18,14.50
2019,09,26,06,19,9.60
2019,09,26,06,20,6.40
2019,09,26,06,21,4.80
2019,09,26,06,22,4.80
2019,09,26,06,23,9.60
2019,09,26,06,24,8.10
2019,09,26,06,25,9.60
2019,09,26,06,26,14.50
2019,09,26,06,27,16.10
2019,09,26,06,28,14.50
2019,09,26,06,29,20.90
2019,09,26,06,30,24.20
2019,09,26,06,31,14.50
2019,09,26,06,32,9.60
2019,09,26,06,33,9.60
2019,09,26,06,34,14.50
2019,09,26,06,35,14.50
2019,09,26,06,36,8.10
2019,09,26,06,37,8.10
2019,09,26,06,38,11.30
2019,09,26,06,39,16.10
2019,09,26,06,40,20.90
2019,09,26,06,41,9.60
2019,09,26,06,42,9.60
2019,09,26,06,43,6.40
2019,09,26,06,44,6.40
2019,09,26,06,45,16.10
2019,09,26,06,46,16.10
2019,09,26,06,47,8.10
2019,09,26,06,48,9.60
2019,09,26,06,49,8.10
2019,09,26,06,50,6.40
2019,09,26,06,51,16.10
2019,09,26,06,52,16.10
2019,09,26,06,53,16.10
2019,09,26,06,54,14.50
2019,09,26,06,55,9.60
2019,09,26,06,56,11.30
2019,09,26,06,57,6.40
2019,09,26,06,58,6.40
2019,09,26,06,59,6.40
2019,09,26,07,00,14.50
2019,09,26,07,01,11.30
2019,09,26,07,02,8.10
2019,09,26,07,03,14.50
2019,09,26,07,04,8.10
2019,09,26,07,05,1.60
2019,09,26,07,07,4.80
2019,09,26,07,08,4.80
2019,09,26,07,09,1.60
2019,09,26,07,10,1.60
2019,09,26,07,11,4.80
2019,09,26,07,12,1.60
2019,09,26,07,13,6.40
2019,09,26,07,14,4.80
2019,09,26,07,15,1.60
2019,09,26,07,16,11.30
2019,09,26,07,17,6.40
2019,09,26,07,18,4.80
2019,09,26,07,19,3.20
2019,09,26,07,20,4.80
2019,09,26,07,21,9.60
2019,09,26,07,22,6.40
2019,09,26,07,23,6.40
2019,09,26,07,24,6.40
2019,09,26,07,25,6.40
2019,09,26,07,26,4.80
2019,09,26,07,27,8.10
2019,09,26,07,28,6.40
2019,09,26,07,29,9.60
2019,09,26,07,30,3.20
2019,09,26,07,31,4.80
2019,09,26,07,32,3.20
2019,09,26,07,33,8.10
2019,09,26,07,34,8.10
2019,09,26,07,35,6.40
2019,09,26,07,36,9.60
2019,09,26,07,37,1.60
2019,09,26,07,38,4.80
2019,09,26,07,39,11.30
2019,09,26,07,40,6.40
2019,09,26,07,41,4.80
2019,09,26,07,42,8.10
2019,09,26,07,43,4.80
2019,09,26,07,44,11.30
2019,09,26,07,45,11.30
2019,09,26,07,46,6.40
2019,09,26,07,47,1.60
2019,09,26,07,48,6.40
2019,09,26,07,49,6.40
2019,09,26,07,50,8.10
2019,09,26,07,51,6.40
2019,09,26,07,52,4.80
2019,09,26,07,53,17.70
2019,09,26,07,54,14.50
2019,09,26,07,55,14.50
2019,09,26,07,56,14.50
2019,09,26,07,57,14.50
2019,09,26,07,58,9.60
2019,09,26,07,59,1.60
2019,09,26,08,00,8.10
2019,09,26,08,01,14.50
2019,09,26,08,02,8.10
2019,09,26,08,03,8.10
2019,09,26,08,04,11.30
2019,09,26,08,05,16.10
2019,09,26,08,06,14.50
2019,09,26,08,07,11.30
2019,09,26,08,08,19.30
2019,09,26,08,09,20.90
2019,09,26,08,10,19.30
2019,09,26,08,11,12.90
2019,09,26,08,12,16.10
2019,09,26,08,13,16.10
2019,09,26,08,14,14.50
2019,09,26,08,15,11.30
2019,09,26,08,16,9.60
2019,09,26,08,17,14.50
2019,09,26,08,18,12.90
2019,09,26,08,19,22.50
2019,09,26,08,20,6.40
2019,09,26,08,21,11.30
2019,09,26,08,22,9.60
2019,09,26,08,23,8.10
2019,09,26,08,24,8.10
2019,09,26,08,25,14.50
2019,09,26,08,26,8.10
2019,09,26,08,27,9.60
2019,09,26,08,28,12.90
2019,09,26,08,29,12.90
2019,09,26,08,30,4.80
2019,09,26,08,31,1.60
2019,09,26,08,32,3.20
2019,09,26,08,33,19.30
2019,09,26,08,34,8.10
2019,09,26,08,35,6.40
2019,09,26,08,36,9.60
2019,09,26,08,37,9.60
2019,09,26,08,38,4.80
2019,09,26,08,39,11.30
2019,09,26,08,40,4.80
2019,09,26,08,41,8.10
2019,09,26,08,42,8.10
2019,09,26,08,43,8.10
2019,09,26,08,44,8.10
2019,09,26,08,45,8.10
2019,09,26,08,46,9.60
2019,09,26,08,47,6.40
2019,09,26,08,48,1.60
2019,09,26,08,49,16.10
2019,09,26,08,50,16.10
2019,09,26,08,51,4.80
2019,09,26,08,52,9.60
2019,09,26,08,53,8.10
2019,09,26,08,54,6.40
2019,09,26,08,55,4.80
2019,09,26,08,56,3.20
2019,09,26,08,57,4.80
2019,09,26,08,58,9.60
2019,09,26,08,59,9.60
2019,09,26,09,00,4.80
2019,09,26,09,01,6.40
2019,09,26,09,02,9.60
2019,09,26,09,03,4.80
2019,09,26,09,04,1.60
2019,09,26,09,05,9.60
2019,09,26,09,06,8.10
2019,09,26,09,07,1.60
2019,09,26,09,08,6.40
2019,09,26,09,09,8.10
2019,09,26,09,10,3.20
2019,09,26,09,11,12.90
2019,09,26,09,12,12.90
2019,09,26,09,13,11.30
2019,09,26,09,14,4.80
2019,09,26,09,15,9.60
2019,09,26,09,16,8.10
2019,09,26,09,17,16.10
2019,09,26,09,18,17.70
2019,09,26,09,19,12.90
2019,09,26,09,20,9.60
2019,09,26,09,22,11.30
2019,09,26,09,23,11.30
2019,09,26,09,24,11.30
2019,09,26,09,25,9.60
2019,09,26,09,26,9.60
2019,09,26,09,27,4.80
2019,09,26,09,28,6.40
2019,09,26,09,29,6.40
2019,09,26,09,30,1.60
2019,09,26,09,31,17.70
2019,09,26,09,32,19.30
2019,09,26,09,33,17.70
2019,09,26,09,34,17.70
2019,09,26,09,35,19.30
2019,09,26,09,36,8.10
2019,09,26,09,37,9.60
2019,09,26,09,38,17.70
2019,09,26,09,39,12.90
2019,09,26,09,40,16.10
2019,09,26,09,41,16.10
2019,09,26,09,42,9.60
2019,09,26,09,43,11.30
2019,09,26,09,44,6.40
2019,09,26,09,45,4.80
2019,09,26,09,46,8.10
2019,09,26,09,47,11.30
2019,09,26,09,48,11.30
2019,09,26,09,49,9.60
2019,09,26,09,50,8.10
2019,09,26,09,51,8.10
2019,09,26,09,52,11.30
2019,09,26,09,53,11.30
2019,09,26,09,54,9.60
2019,09,26,09,55,11.30
2019,09,26,09,56,9.60
2019,09,26,09,57,1.60
2019,09,26,09,58,8.10
2019,09,26,10,01,4.80
2019,09,26,10,02,11.30
2019,09,26,10,03,11.30
2019,09,26,10,04,17.70
2019,09,26,10,05,1.60
2019,09,26,10,06,6.40
2019,09,26,10,07,8.10
2019,09,26,10,08,8.10
2019,09,26,10,09,6.40
2019,09,26,10,10,3.20
2019,09,26,10,11,8.10
2019,09,26,10,12,16.10
2019,09,26,10,13,8.10
2019,09,26,10,14,9.60
2019,09,26,10,15,11.30
2019,09,26,10,16,9.60
2019,09,26,10,17,4.80
2019,09,26,10,18,4.80
2019,09,26,10,19,8.10
2019,09,26,10,20,9.60
2019,09,26,10,21,11.30
2019,09,26,10,22,6.40
2019,09,26,10,23,11.30
2019,09,26,10,24,8.10
2019,09,26,10,26,6.40
2019,09,26,10,27,11.30
2019,09,26,10,28,6.40
2019,09,26,10,29,17.70
2019,09,26,10,30,9.60
2019,09,26,10,31,12.90
2019,09,26,10,32,6.40
2019,09,26,10,33,9.60
2019,09,26,10,34,11.30
2019,09,26,10,35,4.80
2019,09,26,10,36,6.40
2019,09,26,10,37,6.40
2019,09,26,10,38,6.40
2019,09,26,10,39,6.40
2019,09,26,10,40,6.40
2019,09,26,10,41,11.30
2019,09,26,10,42,6.40
2019,09,26,10,43,11.30
2019,09,26,10,44,6.40
2019,09,26,10,45,8.10
2019,09,26,10,46,4.80
2019,09,26,10,47,3.20
2019,09,26,10,48,8.10
2019,09,26,10,49,8.10
2019,09,26,10,50,8.10
2019,09,26,10,51,8.10
2019,09,26,10,52,6.40
2019,09,26,10,53,8.10
2019,09,26,10,54,12.90
2019,09,26,10,55,9.60
2019,09,26,10,56,14.50
2019,09,26,10,57,6.40
2019,09,26,10,58,17.70
2019,09,26,10,59,8.10
2019,09,26,11,00,11.30
2019,09,26,11,01,11.30
2019,09,26,11,02,8.10
2019,09,26,11,04,6.40
2019,09,26,11,05,3.20
2019,09,26,11,06,8.10
2019,09,26,11,07,4.80
2019,09,26,11,08,3.20
2019,09,26,11,09,4.80
2019,09,26,11,10,8.10
2019,09,26,11,11,4.80
2019,09,26,11,12,4.80
2019,09,26,11,13,6.40
2019,09,26,11,14,1.60
2019,09,26,11,15,6.40
2019,09,26,11,16,8.10
2019,09,26,11,17,3.20
2019,09,26,11,18,9.60
2019,09,26,11,19,8.10
2019,09,26,11,20,4.80
2019,09,26,11,21,4.80
2019,09,26,11,22,4.80
2019,09,26,11,23,8.10
2019,09,26,11,24,9.60
2019,09,26,11,25,6.40
2019,09,26,11,26,3.20
2019,09,26,11,27,3.20
2019,09,26,11,29,8.10
2019,09,26,11,30,9.60
2019,09,26,11,31,4.80
2019,09,26,11,32,6.40
2019,09,26,11,33,8.10
2019,09,26,11,34,8.10
2019,09,26,11,35,1.60
2019,09,26,11,39,3.20
2019,09,26,11,40,3.20
2019,09,26,11,41,1.60
2019,09,26,11,47,1.60
2019,09,26,11,50,1.60
2019,09,26,11,51,1.60
2019,09,26,11,52,3.20
2019,09,26,11,54,3.20
2019,09,26,11,57,1.60
2019,09,26,11,58,1.60
2019,09,26,11,59,1.60
2019,09,26,12,00,6.40
2019,09,26,12,01,6.40
2019,09,26,12,02,3.20
2019,09,26,12,03,9.60
2019,09,26,12,04,8.10
2019,09,26,12,05,6.40
2019,09,26,12,06,9.60
2019,09,26,12,07,8.10
2019,09,26,12,08,1.60
2019,09,26,12,09,12.90
2019,09,26,12,10,16.10
2019,09,26,12,11,9.60
2019,09,26,12,12,6.40
2019,09,26,12,13,4.80
2019,09,26,12,14,8.10
2019,09,26,12,15,8.10
2019,09,26,12,16,9.60
2019,09,26,12,17,6.40
2019,09,26,12,19,4.80
2019,09,26,12,20,9.60
2019,09,26,12,21,9.60
2019,09,26,12,22,11.30
2019,09,26,12,23,14.50
2019,09,26,12,24,12.90
2019,09,26,12,25,9.60
2019,09,26,12,26,14.50
2019,09,26,12,27,14.50
2019,09,26,12,28,11.30
2019,09,26,12,29,16.10
2019,09,26,12,30,9.60
2019,09,26,12,31,16.10
2019,09,26,12,32,11.30
2019,09,26,12,33,9.60
2019,09,26,12,34,3.20
2019,09,26,12,35,4.80
2019,09,26,12,36,1.60
2019,09,26,12,37,6.40
2019,09,26,12,38,4.80
2019,09,26,12,40,8.10
2019,09,26,12,41,1.60
2019,09,26,12,42,1.60
2019,09,26,12,44,3.20
2019,09,26,12,45,4.80
2019,09,26,12,46,4.80
2019,09,26,12,47,1.60
2019,09,26,12,48,6.40
2019,09,26,12,49,9.60
2019,09,26,12,50,11.30
2019,09,26,12,51,9.60
2019,09,26,12,52,4.80
2019,09,26,12,54,9.60
2019,09,26,12,55,8.10
2019,09,26,12,56,11.30
2019,09,26,12,57,8.10
2019,09,26,12,58,9.60
2019,09,26,12,59,11.30
2019,09,26,13,00,8.10
2019,09,26,13,01,8.10
2019,09,26,13,02,8.10
2019,09,26,13,03,9.60
2019,09,26,13,04,8.10
2019,09,26,13,05,1.60
2019,09,26,13,06,1.60
2019,09,26,13,07,3.20
2019,09,26,13,08,6.40
2019,09,26,13,09,6.40
2019,09,26,13,10,6.40
2019,09,26,13,11,8.10
2019,09,26,13,12,14.50
2019,09,26,13,13,8.10
2019,09,26,13,14,8.10
2019,09,26,13,15,9.60
2019,09,26,13,16,9.60
2019,09,26,13,17,14.50
2019,09,26,13,18,6.40
2019,09,26,13,19,8.10
2019,09,26,13,20,6.40
2019,09,26,13,21,8.10
2019,09,26,13,22,11.30
2019,09,26,13,23,6.40
2019,09,26,13,24,3.20
2019,09,26,13,25,6.40
2019,09,26,13,26,9.60
2019,09,26,13,27,11.30
2019,09,26,13,28,11.30
2019,09,26,13,29,4.80
2019,09,26,13,30,6.40
2019,09,26,13,31,6.40
2019,09,26,13,32,3.20
2019,09,26,13,33,1.60
2019,09,26,13,34,4.80
2019,09,26,13,35,1.60
2019,09,26,13,36,6.40
2019,09,26,13,37,3.20
2019,09,26,13,38,6.40
2019,09,26,13,39,11.30
2019,09,26,13,40,9.60
2019,09,26,13,41,3.20
2019,09,26,13,42,8.10
2019,09,26,13,43,4.80
2019,09,26,13,44,9.60
2019,09,26,13,45,1.60
2019,09,26,13,46,1.60
2019,09,26,13,47,8.10
2019,09,26,13,48,3.20
2019,09,26,13,49,3.20
2019,09,26,13,50,3.20
2019,09,26,13,51,4.80
2019,09,26,13,52,4.80
2019,09,26,13,53,6.40
2019,09,26,13,54,6.40
2019,09,26,13,55,4.80
2019,09,26,13,56,11.30
2019,09,26,13,57,14.50
2019,09,26,13,58,11.30
2019,09,26,13,59,8.10
2019,09,26,14,00,6.40
2019,09,26,14,01,1.60
2019,09,26,14,02,6.40
2019,09,26,14,03,4.80
2019,09,26,14,04,4.80
2019,09,26,14,06,1.60
2019,09,26,14,07,9.60
2019,09,26,14,08,11.30
2019,09,26,14,09,6.40
2019,09,26,14,10,8.10
2019,09,26,14,11,6.40
2019,09,26,14,12,1.60
2019,09,26,14,13,1.60
2019,09,26,14,14,3.20
2019,09,26,14,16,1.60
2019,09,26,14,17,4.80
2019,09,26,14,18,8.10
2019,09,26,14,19,8.10
2019,09,26,14,20,1.60
2019,09,26,14,23,1.60
2019,09,26,14,24,1.60
2019,09,26,14,25,4.80
2019,09,26,14,26,4.80
2019,09,26,14,27,3.20
2019,09,26,14,28,6.40
2019,09,26,14,29,4.80
2019,09,26,14,30,8.10
2019,09,26,14,31,6.40
2019,09,26,14,34,1.60
2019,09,26,14,35,11.30
2019,09,26,14,36,4.80
2019,09,26,14,37,3.20
2019,09,26,14,38,3.20
2019,09,26,14,39,1.60
2019,09,26,14,40,6.40
2019,09,26,14,41,4.80
2019,09,26,14,42,8.10
2019,09,26,14,43,8.10
2019,09,26,14,44,6.40
2019,09,26,14,45,8.10
2019,09,26,14,46,3.20
2019,09,26,14,47,3.20
2019,09,26,14,48,9.60
2019,09,26,14,49,6.40
2019,09,26,14,50,3.20
2019,09,26,14,51,6.40
2019,09,26,14,52,3.20
2019,09,26,14,53,8.10
2019,09,26,14,54,8.10
2019,09,26,14,55,11.30
2019,09,26,14,56,8.10
2019,09,26,14,57,8.10
2019,09,26,14,58,8.10
2019,09,26,14,59,8.10
2019,09,26,15,00,8.10
2019,09,26,15,01,6.40
2019,09,26,15,02,6.40
2019,09,26,15,03,8.10
2019,09,26,15,04,6.40
2019,09,26,15,05,11.30
2019,09,26,15,06,11.30
2019,09,26,15,07,11.30
2019,09,26,15,08,8.10
2019,09,26,15,09,8.10
2019,09,26,15,10,6.40
2019,09,26,15,11,4.80
2019,09,26,15,12,4.80
2019,09,26,15,13,6.40
2019,09,26,15,14,1.60
2019,09,26,15,15,8.10
2019,09,26,15,16,3.20
2019,09,26,15,17,6.40
2019,09,26,15,18,6.40
2019,09,26,15,19,8.10
2019,09,26,15,20,6.40
2019,09,26,15,21,3.20
2019,09,26,15,22,4.80
2019,09,26,15,23,8.10
2019,09,26,15,24,1.60
2019,09,26,15,25,4.80
2019,09,26,15,26,1.60
2019,09,26,15,29,3.20
2019,09,26,15,30,4.80
2019,09,26,15,31,4.80
2019,09,26,15,32,4.80
2019,09,26,15,33,6.40
2019,09,26,15,34,8.10
2019,09,26,15,35,1.60
2019,09,26,15,36,6.40
2019,09,26,15,37,6.40
2019,09,26,15,38,6.40
2019,09,26,15,39,6.40
2019,09,26,15,40,9.60
2019,09,26,15,41,4.80
2019,09,26,15,42,6.40
2019,09,26,15,43,1.60
2019,09,26,15,44,1.60
2019,09,26,15,45,6.40
2019,09,26,15,46,1.60
2019,09,26,15,47,1.60
2019,09,26,15,48,3.20
2019,09,26,15,49,1.60
2019,09,26,15,52,1.60
2019,09,26,15,53,1.60
2019,09,26,15,54,6.40
2019,09,26,15,55,8.10
2019,09,26,15,56,8.10
2019,09,26,15,58,6.40
2019,09,26,15,59,3.20
2019,09,26,16,00,3.20
2019,09,26,16,02,3.20
2019,09,26,16,03,6.40
2019,09,26,16,04,1.60
2019,09,26,16,06,4.80
2019,09,26,16,07,3.20
2019,09,26,16,08,3.20
2019,09,26,16,09,6.40
2019,09,26,16,10,4.80
2019,09,26,16,11,6.40
2019,09,26,16,12,4.80
2019,09,26,16,14,1.60
2019,09,26,16,15,1.60
2019,09,26,16,16,3.20
2019,09,26,16,17,4.80
2019,09,26,16,19,1.60
2019,09,26,16,20,1.60
2019,09,26,16,22,8.10
2019,09,26,16,23,8.10
2019,09,26,16,24,4.80
2019,09,26,16,25,3.20
2019,09,26,16,26,1.60
2019,09,26,16,28,3.20
2019,09,26,16,29,3.20
2019,09,26,16,30,1.60
2019,09,26,16,32,3.20
2019,09,26,16,33,6.40
2019,09,26,16,34,4.80
2019,09,26,16,35,3.20
2019,09,26,16,36,1.60
2019,09,26,16,37,4.80
2019,09,26,16,38,6.40
2019,09,26,16,39,6.40
2019,09,26,16,40,8.10
2019,09,26,16,41,4.80
2019,09,26,16,42,4.80
2019,09,26,16,43,6.40
2019,09,26,16,44,8.10
2019,09,26,16,45,6.40
2019,09,26,16,46,1.60
2019,09,26,16,48,1.60
2019,09,26,16,49,1.60
2019,09,26,16,50,3.20
2019,09,26,16,52,1.60
2019,09,26,16,55,4.80
2019,09,26,16,57,3.20
2019,09,26,16,58,4.80
2019,09,26,16,59,4.80
2019,09,26,17,00,3.20
2019,09,26,17,01,3.20
2019,09,26,17,02,4.80
2019,09,26,17,03,4.80
2019,09,26,17,05,3.20
2019,09,26,17,06,4.80
2019,09,26,17,07,6.40
2019,09,26,17,08,4.80
2019,09,26,17,09,8.10
2019,09,26,17,10,9.60
2019,09,26,17,11,8.10
2019,09,26,17,12,6.40
2019,09,26,17,13,6.40
2019,09,26,17,14,4.80
2019,09,26,17,15,9.60
2019,09,26,17,16,11.30
2019,09,26,17,17,6.40
2019,09,26,17,19,1.60
2019,09,26,17,20,3.20
2019,09,26,17,21,4.80
2019,09,26,17,22,6.40
2019,09,26,17,23,3.20
2019,09,26,17,24,4.80
2019,09,26,17,25,4.80
2019,09,26,17,26,4.80
2019,09,26,17,27,6.40
2019,09,26,17,28,4.80
2019,09,26,17,29,4.80
2019,09,26,17,30,4.80
2019,09,26,17,31,4.80
2019,09,26,17,32,4.80
2019,09,26,17,33,6.40
2019,09,26,17,34,4.80
2019,09,26,17,35,4.80
2019,09,26,17,36,1.60
2019,09,26,17,40,3.20
2019,09,26,17,42,4.80
2019,09,26,17,44,6.40
2019,09,26,17,45,6.40
2019,09,26,17,46,6.40
2019,09,26,17,47,4.80
2019,09,26,17,48,1.60
2019,09,26,17,52,1.60
2019,09,26,17,53,1.60
2019,09,26,17,55,4.80
2019,09,26,17,56,6.40
2019,09,26,17,57,6.40
2019,09,26,17,58,4.80
2019,09,26,18,01,1.60
2019,09,26,18,02,4.80
2019,09,26,18,03,8.10
2019,09,26,18,04,8.10
2019,09,26,18,05,4.80
2019,09,26,18,07,3.20
2019,09,26,18,08,1.60
2019,09,26,18,31,1.60
2019,09,26,18,52,3.20
2019,09,26,19,08,1.60
2019,09,26,20,19,3.20
2019,09,26,20,20,3.20
2019,09,26,20,21,1.60
2019,09,26,20,53,4.80
2019,09,26,20,54,9.60
2019,09,26,20,55,4.80
2019,09,26,20,56,3.20
2019,09,26,20,57,6.40
2019,09,26,20,58,9.60
2019,09,26,20,59,11.30
2019,09,26,21,00,6.40
2019,09,26,21,01,1.60
2019,09,26,21,03,3.20
2019,09,26,21,04,1.60
2019,09,26,21,19,1.60
2019,09,26,21,20,3.20
2019,09,26,21,23,4.80
2019,09,26,21,24,3.20
2019,09,26,21,25,1.60
2019,09,26,21,28,3.20
2019,09,26,21,29,1.60
2019,09,26,21,34,3.20
2019,09,26,21,35,1.60
2019,09,26,21,36,3.20
2019,09,26,21,38,6.40
2019,09,26,21,39,4.80
2019,09,26,21,40,8.10
2019,09,26,21,41,6.40
2019,09,26,21,42,4.80
2019,09,26,21,43,8.10
2019,09,26,21,44,6.40
2019,09,26,21,45,4.80
2019,09,26,21,46,4.80
2019,09,26,21,48,3.20
2019,09,26,21,49,4.80
2019,09,26,21,50,1.60
2019,09,26,21,51,3.20
2019,09,26,21,52,3.20
2019,09,26,21,53,6.40
2019,09,26,21,54,6.40
2019,09,26,21,59,6.40
2019,09,26,22,00,1.60
2019,09,26,22,01,1.60
2019,09,26,22,04,3.20
2019,09,26,22,06,9.60
2019,09,26,22,07,3.20
2019,09,26,22,08,3.20
2019,09,26,22,09,9.60
2019,09,26,22,10,4.80
2019,09,26,22,11,4.80
2019,09,26,22,12,8.10
2019,09,26,22,13,16.10
2019,09,26,22,14,8.10
2019,09,26,22,15,8.10
2019,09,26,22,16,3.20
2019,09,26,22,17,9.60
2019,09,26,22,18,14.50
2019,09,26,22,19,9.60
2019,09,26,22,20,11.30
2019,09,26,22,21,19.30
2019,09,26,22,22,19.30
2019,09,26,22,23,6.40
2019,09,26,22,24,4.80
2019,09,26,22,25,6.40
2019,09,26,22,26,6.40